[[{"header":{"parameterUnit":"m.s-1","parameterCategory":1,"la1":30.2991,"la2":30.254,"lo1":-89.0895,"lo2":-89.0444,"dy":0.0017,"dx":0.0017,"nx":28,"ny":28,"refTime":"2025-12-05T03:00:00:Z","depth":0,"parameterNumber":2,"parameterNumberName":"U-component_of_WINDS"},"data":[0,0,0,0,0,0,0,0,0,0,0,0,0,0,0,0,0,0,0,0,0,0,0,0,0,0,0,0,0,0,0,0,0,0,0,0,0,0,0,0,0,0,0,0,0,0,0,0,0,0,0,0,0,0,0,0,0,0,-1.2505,-1.2506,0,-1.2615,-1.2616,-1.2617,-1.2612,-1.2611,-1.2609,-1.2607,-1.2724,-1.2728,-1.2733,0,0,0,0,0,0,0,0,0,0,0,0,0,-1.2293,-1.2297,-1.2505,-1.2506,-1.2507,-1.2615,-1.2616,-1.2618,-1.2612,-1.261,-1.2609,-1.2607,-1.2722,-1.2728,-1.2733,0,0,0,0,0,0,0,0,0,0,0,0,0,-1.2393,-1.2298,-1.2504,-1.2518,-1.252,-1.2614,-1.2616,-1.2618,-1.2613,-1.261,-1.2608,-1.2606,-1.2721,-1.2727,-1.2734,-1.2824,0,0,-1.2755,-1.2758,0,0,0,0,0,0,0,0,-1.2387,-1.24,-1.2514,-1.2517,-1.252,-1.2597,-1.2584,-1.2687,-1.2613,-1.2578,-1.2607,-1.2605,-1.2684,-1.2694,-1.272,-1.2829,-1.2834,-1.2756,-1.276,-1.2763,-1.2765,0,0,0,0,0,0,0,-1.238,-1.2396,-1.2548,-1.2516,-1.2519,-1.2519,-1.2531,-1.2604,-1.2643,-1.2581,-1.258,-1.2593,-1.2685,-1.2713,-1.2722,-1.2836,-1.2755,-1.2762,-1.2766,-1.2768,-1.3025,-1.3027,0,0,0,0,0,0,-1.237,-1.239,-1.2545,-1.2552,-1.2446,-1.2525,-1.2538,-1.2575,-1.2642,-1.265,-1.2595,-1.2593,-1.2702,-1.2714,-1.2726,-1.2836,-1.2763,-1.2769,-1.2773,-1.3022,-1.3025,-1.3028,0,0,0,0,0,0,-1.2365,-1.2384,-1.254,-1.2471,-1.2491,-1.2531,-1.2573,-1.2578,-1.2606,-1.2653,-1.266,-1.2617,-1.2701,-1.2717,-1.2799,-1.284,-1.2772,-1.2778,-1.3019,-1.3023,-1.3027,-1.3056,0,0,0,0,0,0,-1.2359,-1.2382,-1.2416,-1.2471,-1.2494,-1.2611,-1.2575,-1.2582,-1.2618,-1.2615,-1.2675,-1.2683,-1.27,-1.2789,-1.2806,-1.2848,-1.2784,-1.3015,-1.3021,-1.3025,-1.3051,-1.306,-1.3068,0,0,0,0,0,-1.2352,-1.242,-1.2417,-1.2436,-1.2537,-1.2613,-1.2626,-1.2644,-1.2621,-1.2656,-1.2686,-1.2681,-1.2832,-1.2798,-1.2817,-1.2861,-1.3013,-1.3019,-1.3025,-1.3048,-1.3058,-1.3068,0,0,0,0,0,0,-1.237,-1.2428,-1.2425,-1.2514,-1.2558,-1.2612,-1.2656,-1.2655,-1.2708,-1.2704,-1.2725,-1.2739,-1.2822,-1.285,-1.281,-1.2952,-1.292,-1.293,-1.293,-1.2941,-1.2949,-1.2941,-1.2789,0,0,0,0,0,-1.2384,-1.2439,-1.2487,-1.2561,-1.2583,-1.2616,-1.265,-1.2659,-1.2707,-1.2726,-1.2762,-1.2809,-1.2868,-1.2906,-1.2962,-1.3055,-1.3068,-1.3095,-1.3103,-1.311,-1.3119,-1.3171,-1.3183,-1.3048,-1.3048,-1.3048,0,0,-1.2414,-1.2452,-1.2486,-1.2565,-1.2601,-1.2659,-1.2632,-1.2694,-1.2738,-1.2736,-1.2816,-1.2844,-1.2898,-1.2986,-1.3027,-1.3012,-1.3159,-1.3118,-1.3123,-1.3128,-1.3178,-1.3191,-1.3202,-1.3052,-1.3052,-1.3051,0,0,-1.2498,-1.2533,-1.2598,-1.2634,-1.2687,-1.2709,-1.2724,-1.2778,-1.2796,-1.2876,-1.2876,-1.2929,-1.3029,-1.3067,-1.31,-1.3199,-1.3196,-1.3216,-1.326,-1.331,-1.3321,-1.333,-1.3366,-1.3379,-1.3225,-1.3225,-1.3225,0,-1.2529,-1.2616,-1.2632,-1.2694,-1.273,-1.2729,-1.2795,-1.283,-1.29,-1.2925,-1.2907,-1.3032,-1.3069,-1.3166,-1.319,-1.3216,-1.3235,-1.321,-1.3318,-1.3327,-1.3337,-1.3371,-1.3384,-1.3227,-1.3227,-1.3227,-1.3226,0,-1.2651,-1.2711,-1.2757,-1.2824,-1.2864,-1.2928,-1.2955,-1.2994,-1.3,-1.3024,-1.3106,-1.3149,-1.3214,-1.3238,-1.3245,-1.3337,-1.3326,-1.3313,-1.3281,-1.3351,-1.3384,-1.3397,-1.323,-1.3229,-1.3229,-1.3228,0,0,-1.2751,-1.2824,-1.2841,-1.2871,-1.293,-1.2978,-1.3042,-1.3105,-1.3138,-1.3186,-1.3242,-1.3326,-1.3314,-1.3351,-1.3363,-1.3406,-1.3482,-1.3388,-1.3389,-1.3404,-1.3586,-1.3596,-1.3611,-1.3481,-1.3483,-1.3485,-1.3582,0,-1.2842,-1.2956,-1.2972,-1.3073,-1.3128,-1.3128,-1.3185,-1.3228,-1.3251,-1.3303,-1.3329,-1.3389,-1.3368,-1.339,-1.3433,-1.3464,-1.3519,-1.3457,-1.3534,-1.3536,-1.3521,-1.3628,-1.3639,-1.3728,-1.3595,-1.3597,-1.3598,0,-1.2964,-1.3014,-1.312,-1.3171,-1.3195,-1.3245,-1.3304,-1.3353,-1.3402,-1.3416,-1.3457,-1.3463,-1.3531,-1.3496,-1.359,-1.3548,-1.358,-1.36,-1.3604,-1.3612,-1.3572,-1.3641,-1.3757,-1.3771,-1.3619,-1.3617,-1.3616,0,-1.3027,-1.3121,-1.3196,-1.3222,-1.3283,-1.3319,-1.3346,-1.3393,-1.3429,-1.348,-1.3504,-1.3564,-1.3596,-1.3642,-1.3665,-1.3637,-1.3758,-1.3725,-1.3773,-1.3772,-1.3799,-1.3797,-1.3923,-1.3819,-1.3818,-1.3818,-1.3818,0,-1.3128,-1.3193,-1.3225,-1.3272,-1.3345,-1.3363,-1.3435,-1.3462,-1.3503,-1.3555,-1.3559,-1.3609,-1.3634,-1.3688,-1.3706,-1.3782,-1.3797,-1.3811,-1.3815,-1.3811,-1.3809,-1.3833,-1.3828,-1.3822,-1.3821,-1.382,-1.382,0,-1.3211,-1.3235,-1.3318,-1.3368,-1.3383,-1.3434,-1.3478,-1.3524,-1.3547,-1.3613,-1.363,-1.3666,-1.3729,-1.3755,-1.3834,-1.3846,-1.3933,-1.3932,-1.3916,-1.3918,-1.3965,-1.396,-1.4111,-1.4132,-1.4013,-1.4014,-1.4015,0,-1.3274,-1.3323,-1.3379,-1.3414,-1.3442,-1.3498,-1.3535,-1.3555,-1.3593,-1.3652,-1.3691,-1.3754,-1.3805,-1.3906,-1.3941,-1.4,-1.4001,-1.405,-1.4011,-1.4005,-1.4003,-1.4,-1.4006,-1.4058,-1.4059,-1.406,-1.4061,0,-1.3383,-1.3392,-1.3444,-1.3501,-1.3544,-1.359,-1.3635,-1.3664,-1.3691,-1.3734,-1.3798,-1.3837,-1.3916,-1.3979,-1.4041,-1.407,-1.4071,-1.4073,-1.4087,-1.4084,-1.4073,-1.408,-1.3937,-1.407,-1.4069,-1.4068,-1.4068,-1.4067,-1.3459,-1.3503,-1.3549,-1.3607,-1.3642,-1.3684,-1.3729,-1.3757,-1.381,-1.3875,-1.3884,-1.3952,-1.4,-1.4083,-1.4115,-1.4169,-1.4157,-1.4178,-1.4183,-1.4188,-1.4192,-1.4063,-1.4181,-1.418,-1.418,-1.418,-1.418,0,-1.3569,-1.3598,-1.3651,-1.3713,-1.3759,-1.3753,-1.3802,-1.3841,-1.3901,-1.3945,-1.3995,-1.4069,-1.413,-1.4168,-1.4229,-1.4266,-1.4268,-1.4281,-1.4279,-1.4286,-1.4199,-1.418,-1.4279,-1.4279,-1.4279,-1.4279,-1.4279,-1.4279,-1.3631,-1.3706,-1.3721,-1.3813,-1.3842,-1.3908,-1.3937,-1.3976,-1.4011,-1.4092,-1.4142,-1.4166,-1.4208,-1.4273,-1.4328,-1.4338,-1.4361,-1.4376,-1.4385,-1.4303,-1.4293,-1.4283,-1.4266,-1.4381,-1.4381,-1.4468,-1.4469,-1.447]},{"header":{"parameterUnit":"m.s-1","parameterCategory":1,"la1":30.2991,"la2":30.254,"lo1":-89.0895,"lo2":-89.0444,"dy":0.0017,"dx":0.0017,"nx":28,"ny":28,"refTime":"2025-12-05T03:00:00:Z","depth":0,"parameterNumber":3,"parameterNumberName":"V-component_of_WINDS"},"data":[0,0,0,0,0,0,0,0,0,0,0,0,0,0,0,0,0,0,0,0,0,0,0,0,0,0,0,0,0,0,0,0,0,0,0,0,0,0,0,0,0,0,0,0,0,0,0,0,0,0,0,0,0,0,0,0,0,0,-1.9761,-1.9761,0,-1.9745,-1.9745,-1.9744,-1.9691,-1.9689,-1.9688,-1.9687,-1.9671,-1.9672,-1.9673,0,0,0,0,0,0,0,0,0,0,0,0,0,-1.9745,-1.9746,-1.9761,-1.9761,-1.976,-1.9745,-1.9745,-1.9744,-1.9691,-1.9689,-1.9688,-1.9686,-1.9671,-1.9672,-1.9673,0,0,0,0,0,0,0,0,0,0,0,0,0,-1.9743,-1.9746,-1.9761,-1.9732,-1.9729,-1.9745,-1.9745,-1.9744,-1.9691,-1.9689,-1.9687,-1.9686,-1.9671,-1.9672,-1.9673,-1.9716,0,0,-1.9676,-1.9676,0,0,0,0,0,0,0,0,-1.9743,-1.9743,-1.9736,-1.9734,-1.9731,-1.9718,-1.9733,-1.9735,-1.9692,-1.9705,-1.9687,-1.9685,-1.9688,-1.9688,-1.9689,-1.9715,-1.9714,-1.9676,-1.9677,-1.9677,-1.9677,0,0,0,0,0,0,0,-1.9743,-1.9744,-1.9754,-1.9736,-1.9733,-1.972,-1.9717,-1.9733,-1.9707,-1.9704,-1.97,-1.9699,-1.9686,-1.9688,-1.9688,-1.9714,-1.9676,-1.9677,-1.9678,-1.9678,-1.9775,-1.9777,0,0,0,0,0,0,-1.9747,-1.9744,-1.9755,-1.9754,-1.9732,-1.9721,-1.9719,-1.9724,-1.9707,-1.9703,-1.9701,-1.9697,-1.9687,-1.9687,-1.9687,-1.9737,-1.9677,-1.9678,-1.9679,-1.9773,-1.9776,-1.9778,0,0,0,0,0,0,-1.9747,-1.9749,-1.9756,-1.9748,-1.9748,-1.9724,-1.973,-1.9724,-1.9726,-1.9704,-1.9699,-1.9707,-1.9685,-1.9686,-1.9709,-1.9735,-1.9679,-1.968,-1.9771,-1.9774,-1.9777,-1.9836,0,0,0,0,0,0,-1.9747,-1.9749,-1.9765,-1.9749,-1.9749,-1.9778,-1.9731,-1.9725,-1.9728,-1.9722,-1.9709,-1.9705,-1.9684,-1.9708,-1.971,-1.9736,-1.968,-1.9768,-1.9772,-1.9776,-1.9832,-1.984,-1.9848,0,0,0,0,0,-1.9747,-1.9782,-1.9766,-1.9768,-1.9768,-1.9779,-1.9779,-1.9754,-1.973,-1.9746,-1.9732,-1.9705,-1.9732,-1.9711,-1.9713,-1.9739,-1.9767,-1.9771,-1.9775,-1.9828,-1.9839,-1.9848,0,0,0,0,0,0,-1.9802,-1.978,-1.9761,-1.9793,-1.9789,-1.977,-1.9789,-1.9767,-1.9769,-1.9764,-1.9733,-1.9731,-1.9759,-1.9751,-1.9728,-1.978,-1.9745,-1.975,-1.9784,-1.9794,-1.9802,-1.9804,-1.9681,0,0,0,0,0,-1.9818,-1.9829,-1.9809,-1.9839,-1.9837,-1.9814,-1.9818,-1.9799,-1.9794,-1.9791,-1.9779,-1.9775,-1.9782,-1.9788,-1.9793,-1.983,-1.9827,-1.9849,-1.9858,-1.9865,-1.9869,-1.9889,-1.9899,-1.9792,-1.9792,-1.9792,0,0,-1.9851,-1.984,-1.9849,-1.985,-1.9844,-1.9856,-1.9813,-1.9828,-1.9837,-1.9794,-1.9815,-1.9806,-1.9799,-1.983,-1.9842,-1.9824,-1.9898,-1.987,-1.9876,-1.9877,-1.9894,-1.9905,-1.9914,-1.9795,-1.9794,-1.9794,0,0,-1.9918,-1.9911,-1.9935,-1.993,-1.9922,-1.9906,-1.9912,-1.9898,-1.989,-1.9911,-1.9879,-1.989,-1.9903,-1.9899,-1.9899,-1.9965,-1.9941,-1.9968,-2.0011,-2.0031,-2.0039,-2.0046,-2.007,-2.0079,-1.9973,-1.9973,-1.9973,0,-1.996,-1.9977,-1.995,-1.9967,-1.9968,-1.993,-1.9955,-1.9951,-1.9946,-1.9948,-1.9927,-1.9944,-1.9936,-1.9966,-1.9982,-1.9983,-1.9989,-1.9969,-2.004,-2.0047,-2.0054,-2.0076,-2.0085,-1.9976,-1.9976,-1.9975,-1.9975,0,-2.0029,-2.0042,-2.0062,-2.0058,-2.0062,-2.0082,-2.0059,-2.0066,-2.0047,-2.0034,-2.0056,-2.0045,-2.0049,-2.0054,-2.0036,-2.0081,-2.007,-2.0046,-2.001,-2.0068,-2.0088,-2.0097,-1.9981,-1.998,-1.9979,-1.9978,0,0,-2.013,-2.0111,-2.0119,-2.0117,-2.0105,-2.0115,-2.0134,-2.0137,-2.0144,-2.0141,-2.0157,-2.0169,-2.0147,-2.0147,-2.0128,-2.0145,-2.0198,-2.0118,-2.0117,-2.0133,-2.0248,-2.0267,-2.0277,-2.0182,-2.0183,-2.0184,-2.0249,0,-2.0193,-2.0225,-2.0201,-2.0237,-2.0249,-2.0213,-2.023,-2.0225,-2.0213,-2.0221,-2.0208,-2.0218,-2.0187,-2.0186,-2.0202,-2.0188,-2.0221,-2.0183,-2.0196,-2.0197,-2.02,-2.0288,-2.0308,-2.0369,-2.0257,-2.0258,-2.0259,0,-2.0271,-2.0273,-2.031,-2.0297,-2.0301,-2.0316,-2.0317,-2.0326,-2.032,-2.031,-2.031,-2.0287,-2.0305,-2.027,-2.0295,-2.027,-2.0274,-2.0268,-2.027,-2.0271,-2.0232,-2.0291,-2.0388,-2.0397,-2.0271,-2.027,-2.0269,0,-2.0342,-2.0353,-2.0377,-2.0376,-2.0361,-2.0373,-2.0367,-2.0359,-2.0363,-2.0364,-2.0366,-2.0369,-2.0371,-2.0374,-2.0353,-2.0329,-2.0381,-2.0344,-2.0374,-2.0374,-2.0386,-2.0386,-2.0485,-2.0388,-2.0388,-2.0388,-2.0388,0,-2.0415,-2.0439,-2.0408,-2.0423,-2.0449,-2.0422,-2.0449,-2.0439,-2.0433,-2.0445,-2.0414,-2.0427,-2.0397,-2.0407,-2.039,-2.0414,-2.0414,-2.0407,-2.0403,-2.041,-2.0411,-2.0413,-2.0408,-2.0391,-2.039,-2.039,-2.0389,0,-2.0498,-2.0478,-2.0502,-2.0486,-2.0482,-2.0503,-2.0489,-2.0502,-2.0488,-2.0505,-2.0507,-2.0485,-2.0495,-2.0474,-2.048,-2.0469,-2.0503,-2.0491,-2.0505,-2.0502,-2.0533,-2.0531,-2.0637,-2.065,-2.0545,-2.0546,-2.0547,0,-2.0546,-2.0564,-2.0551,-2.0557,-2.0553,-2.0563,-2.0567,-2.0541,-2.0546,-2.0541,-2.0555,-2.0562,-2.0566,-2.0583,-2.0568,-2.0573,-2.0562,-2.0599,-2.0562,-2.057,-2.0563,-2.0563,-2.0565,-2.0607,-2.0608,-2.0609,-2.061,0,-2.0634,-2.0624,-2.063,-2.0633,-2.0639,-2.064,-2.0639,-2.0646,-2.0618,-2.0625,-2.0635,-2.0638,-2.0645,-2.0653,-2.0655,-2.0649,-2.0625,-2.0621,-2.0629,-2.0637,-2.0645,-2.0641,-2.0526,-2.0619,-2.0618,-2.0617,-2.0617,-2.0617,-2.0702,-2.0716,-2.0709,-2.0717,-2.0714,-2.0714,-2.0726,-2.0714,-2.0721,-2.0725,-2.0709,-2.0722,-2.0716,-2.0716,-2.0713,-2.0723,-2.0707,-2.0717,-2.072,-2.0723,-2.0729,-2.0643,-2.0724,-2.0723,-2.0723,-2.0723,-2.0723,0,-2.0788,-2.0782,-2.079,-2.079,-2.0797,-2.0774,-2.0772,-2.0779,-2.0791,-2.0787,-2.0792,-2.0804,-2.0811,-2.0797,-2.0803,-2.0814,-2.0803,-2.0816,-2.0815,-2.0814,-2.0743,-2.0736,-2.0824,-2.0824,-2.0824,-2.0824,-2.0824,-2.0824,-2.0834,-2.0858,-2.0847,-2.0868,-2.0862,-2.0875,-2.0876,-2.0876,-2.0873,-2.0887,-2.0893,-2.0884,-2.0876,-2.0881,-2.0887,-2.0883,-2.0886,-2.0903,-2.0896,-2.0829,-2.0819,-2.081,-2.0803,-2.0904,-2.0904,-2.0966,-2.0967,-2.0967]}]]